Home > Weather > Brantford > Past weeks

Flag for Canada Past Weather in Brantford, Ontario, Canada — Yesterday and Last 2 Weeks

Now
70 °F

Partly sunny.


Feels Like: 70 °F
Forecast: 65 / 78 °F
Wind: 15 mph from East

Location: Hamilton Airport

Current Time: Jul 30, 2016 at 9:46:37 PM

Latest Report: Jul 30, 2016 at 9:00 PM


Visibility: 15 mi

Pressure: 30.01 "Hg

Humidity: 64%

Dew Point: 57 °F

Location of BrantfordLocation

Past Weather in Brantford — Graph

°F

Brantford Temperature Yesterday

Maximum temperature yesterday: 77 °F (at 3:00 PM)
Minimum temperature yesterday: 66 °F (at 2:00 AM)
Average temperature yesterday: 71 °F

High & Low Weather Summary for the Past Weeks

 TemperatureHumidityPressure
High91 °F (Jul 22, 3:00 PM)100% (Jul 27, 3:00 AM)30.29 "Hg (Jul 27, 3:00 AM)
Low50 °F (Jul 17, 6:00 AM)30% (Jul 20, 4:00 PM)29.84 "Hg (Jul 25, 7:00 AM)
Average73 °F66%30.01 "Hg
* Reported Jul 15 8:00 PM — Jul 30 8:00 PM, Brantford, Weather by CustomWeather, © 2016

Note: Actual official high and low records may vary slightly from our data, if they occured in-between our weather recording intervals... More about our weather records

Advertising

Brantford Weather History for the Previous 24 Hours

Scroll right to see more
 ConditionsComfort  
Time TempWeatherWind HumidityBarometerVisibility
8:00 PM
Sat, Jul 30
72 °FBroken clouds.16 mph61%30.00 "Hg15 mi
7:00 PM72 °FPartly sunny.17 mph69%30.01 "Hg15 mi
6:00 PM72 °FBroken clouds.18 mph73%30.00 "Hg15 mi
5:00 PM72 °FBroken clouds.20 mph73%30.00 "Hg15 mi
4:00 PM75 °FPartly sunny.20 mph69%30.01 "Hg15 mi
3:00 PM73 °FBroken clouds.22 mph74%30.02 "Hg15 mi
2:00 PM72 °FPartly sunny.17 mph78%30.03 "Hg15 mi
1:00 PM70 °FPartly sunny.21 mph83%30.03 "Hg15 mi
12:00 PM68 °FBroken clouds.15 mph88%30.03 "Hg15 mi
11:00 AM66 °FMore clouds than sun.16 mph88%30.05 "Hg15 mi
10:00 AM64 °FSprinkles. Mostly cloudy.14 mph94%30.04 "Hg15 mi
9:00 AM64 °FSprinkles. Fog.9 mph94%30.05 "Hg3 mi
8:00 AM64 °FRain showers. More clouds than sun.13 mph94%30.04 "Hg15 mi
7:54 AM66 °FSprinkles. More clouds than sun.10 mph88%30.04 "Hg15 mi
7:00 AM66 °FScattered showers. Mostly cloudy.14 mph83%30.01 "Hg15 mi
6:00 AM66 °FScattered showers. Mostly cloudy.12 mph88%30.01 "Hg15 mi
5:00 AM66 °FLight rain. Overcast.15 mph83%29.99 "Hg15 mi
4:00 AM66 °FLight rain. Overcast.16 mph78%30.00 "Hg15 mi
3:00 AM68 °FLight rain. Mostly cloudy.20 mph73%30.00 "Hg15 mi
2:00 AM70 °FMostly cloudy.15 mph64%30.00 "Hg15 mi
1:00 AM70 °FPassing clouds.10 mph64%30.00 "Hg15 mi
12:00 AM70 °FOvercast.9 mph73%30.00 "Hg15 mi
11:00 PM
Fri, Jul 29
70 °FPassing clouds.8 mph73%30.00 "Hg15 mi
10:00 PM70 °FPassing clouds.7 mph69%29.99 "Hg15 mi
9:00 PM72 °FBroken clouds.7 mph65%29.98 "Hg15 mi
Weather by CustomWeather, © 2016

See weather overviewHow to use our weather pages